Information on these data can be found in provided Readme document
Contact Info: Zachary Fasnacht (zachary.fasnacht@ssaihq.com); Nickolay Krotkov (nickolay.a.krotkov@nasa.gov); Lok Lamsal (lok.lamsal@nasa.gov)

FillValue: -999.
ScaleFactor: 1e15
Units: molecules/cm^2

Date(yyyy-mm-dd),City,Country,LonCenter,LatCenter,BoundingCoordinates,Median,Q1,Q3,Mean,Baseline_Median,Baseline_Q1,Baseline_Q3,Baseline_Mean,NumGoodSamples,NumTotalSamples
2015-01-01,Chengdu,China,104.0647,30.6586,[103.5647 30.1586 104.5647 31.1586],9.3,6.833,13.763,11.708,8.91,6.203,13.227,10.425,74.0,575.0
2015-01-02,Chengdu,China,104.0647,30.6586,[103.5647 30.1586 104.5647 31.1586],9.3,6.833,13.763,11.708,8.91,6.203,13.227,10.425,74.0,581.0
2015-01-03,Chengdu,China,104.0647,30.6586,[103.5647 30.1586 104.5647 31.1586],9.3,6.833,13.763,11.708,8.45,6.338,13.216,10.766,74.0,568.0
2015-01-04,Chengdu,China,104.0647,30.6586,[103.5647 30.1586 104.5647 31.1586],8.884,6.702,14.009,11.708,9.394,6.96,14.066,11.011,73.0,572.0
2015-01-05,Chengdu,China,104.0647,30.6586,[103.5647 30.1586 104.5647 31.1586],7.833,5.797,9.433,7.788,9.893,6.893,13.883,10.193,43.0,572.0
2015-01-06,Chengdu,China,104.0647,30.6586,[103.5647 30.1586 104.5647 31.1586],7.833,5.797,9.433,7.788,10.226,7.23,13.81,10.607,43.0,587.0
2015-01-07,Chengdu,China,104.0647,30.6586,[103.5647 30.1586 104.5647 31.1586],4.792,2.649,8.334,5.356,10.594,7.256,14.66,11.016,17.0,581.0
2015-01-08,Chengdu,China,104.0647,30.6586,[103.5647 30.1586 104.5647 31.1586],4.792,2.649,8.334,5.356,10.523,7.427,14.842,11.046,17.0,577.0
2015-01-09,Chengdu,China,104.0647,30.6586,[103.5647 30.1586 104.5647 31.1586],4.792,2.649,8.334,5.356,9.791,6.845,13.732,10.71,17.0,586.0
2015-01-10,Chengdu,China,104.0647,30.6586,[103.5647 30.1586 104.5647 31.1586],4.792,2.649,8.334,5.356,9.14,6.921,13.617,10.233,17.0,540.0
2015-01-11,Chengdu,China,104.0647,30.6586,[103.5647 30.1586 104.5647 31.1586],5.808,3.828,8.433,5.87,9.255,7.046,13.683,10.322,15.0,543.0
2015-01-12,Chengdu,China,104.0647,30.6586,[103.5647 30.1586 104.5647 31.1586],4.792,0.492,8.334,4.765,9.719,6.874,14.399,10.855,18.0,540.0
2015-01-13,Chengdu,China,104.0647,30.6586,[103.5647 30.1586 104.5647 31.1586],4.792,0.492,8.334,4.765,9.677,6.889,14.304,10.684,18.0,546.0
2015-01-14,Chengdu,China,104.0647,30.6586,[103.5647 30.1586 104.5647 31.1586],7.726,6.671,13.924,9.54,10.17,7.375,15.204,11.243,31.0,550.0
2015-01-15,Chengdu,China,104.0647,30.6586,[103.5647 30.1586 104.5647 31.1586],7.726,6.671,13.924,9.451,10.145,7.698,15.885,11.364,33.0,556.0
2015-01-16,Chengdu,China,104.0647,30.6586,[103.5647 30.1586 104.5647 31.1586],7.726,6.671,13.924,9.451,10.215,7.423,15.591,11.231,33.0,552.0
2015-01-17,Chengdu,China,104.0647,30.6586,[103.5647 30.1586 104.5647 31.1586],7.726,6.671,13.924,9.451,9.262,6.248,13.699,10.144,33.0,540.0
2015-01-18,Chengdu,China,104.0647,30.6586,[103.5647 30.1586 104.5647 31.1586],7.726,6.671,13.924,9.451,9.374,6.22,13.995,10.342,33.0,544.0
2015-01-19,Chengdu,China,104.0647,30.6586,[103.5647 30.1586 104.5647 31.1586],7.726,6.671,13.924,9.451,8.833,5.723,13.403,10.106,33.0,532.0
2015-01-20,Chengdu,China,104.0647,30.6586,[103.5647 30.1586 104.5647 31.1586],7.726,6.671,13.924,9.658,8.871,5.698,13.422,10.125,30.0,537.0
2015-01-21,Chengdu,China,104.0647,30.6586,[103.5647 30.1586 104.5647 31.1586],7.726,6.671,13.924,9.658,8.592,5.406,12.993,9.815,30.0,537.0
2015-01-22,Chengdu,China,104.0647,30.6586,[103.5647 30.1586 104.5647 31.1586],7.726,6.671,13.924,9.613,8.021,4.771,12.024,9.086,31.0,552.0
2015-01-23,Chengdu,China,104.0647,30.6586,[103.5647 30.1586 104.5647 31.1586],7.726,6.671,13.924,9.613,8.022,4.773,12.025,9.097,31.0,547.0
2015-01-24,Chengdu,China,104.0647,30.6586,[103.5647 30.1586 104.5647 31.1586],7.726,6.671,13.924,9.613,8.018,5.169,11.911,8.875,31.0,545.0
2015-01-25,Chengdu,China,104.0647,30.6586,[103.5647 30.1586 104.5647 31.1586],7.726,6.671,13.924,9.613,7.986,5.148,11.856,8.857,31.0,579.0
2015-01-26,Chengdu,China,104.0647,30.6586,[103.5647 30.1586 104.5647 31.1586],7.726,6.671,13.924,9.613,7.986,5.148,11.856,8.857,31.0,559.0
2015-01-27,Chengdu,China,104.0647,30.6586,[103.5647 30.1586 104.5647 31.1586],7.89,6.937,13.924,10.149,7.302,4.895,10.932,8.324,28.0,561.0
2015-01-28,Chengdu,China,104.0647,30.6586,[103.5647 30.1586 104.5647 31.1586],7.726,6.372,11.543,9.506,6.992,4.683,10.287,7.988,32.0,557.0
2015-01-29,Chengdu,China,104.0647,30.6586,[103.5647 30.1586 104.5647 31.1586],6.37,5.927,7.134,6.493,5.553,3.149,7.844,6.047,7.0,562.0
2015-01-30,Chengdu,China,104.0647,30.6586,[103.5647 30.1586 104.5647 31.1586],6.37,5.927,9.243,6.609,4.79,2.918,6.631,5.26,5.0,566.0
2015-01-31,Chengdu,China,104.0647,30.6586,[103.5647 30.1586 104.5647 31.1586],6.517,5.927,9.243,7.623,4.0,3.028,6.156,5.022,20.0,577.0
2015-02-01,Chengdu,China,104.0647,30.6586,[103.5647 30.1586 104.5647 31.1586],6.517,5.927,9.243,7.623,3.989,3.105,5.58,4.869,20.0,578.0
2015-02-02,Chengdu,China,104.0647,30.6586,[103.5647 30.1586 104.5647 31.1586],6.517,5.927,9.243,7.623,3.989,3.106,5.542,4.379,20.0,568.0
2015-02-03,Chengdu,China,104.0647,30.6586,[103.5647 30.1586 104.5647 31.1586],6.517,5.927,9.243,7.623,4.122,3.152,5.765,4.642,20.0,572.0
2015-02-04,Chengdu,China,104.0647,30.6586,[103.5647 30.1586 104.5647 31.1586],4.545,3.123,6.517,5.141,4.022,2.946,5.66,4.546,48.0,558.0
2015-02-05,Chengdu,China,104.0647,30.6586,[103.5647 30.1586 104.5647 31.1586],4.545,3.123,6.517,5.141,4.009,2.897,5.482,4.493,48.0,562.0
2015-02-06,Chengdu,China,104.0647,30.6586,[103.5647 30.1586 104.5647 31.1586],4.057,2.667,6.37,4.848,3.866,2.703,5.384,4.41,57.0,563.0
2015-02-07,Chengdu,China,104.0647,30.6586,[103.5647 30.1586 104.5647 31.1586],4.193,2.667,6.517,5.232,3.875,2.692,5.507,4.527,67.0,578.0
2015-02-08,Chengdu,China,104.0647,30.6586,[103.5647 30.1586 104.5647 31.1586],4.057,2.667,6.517,5.196,3.939,2.698,5.569,4.557,70.0,571.0
2015-02-09,Chengdu,China,104.0647,30.6586,[103.5647 30.1586 104.5647 31.1586],4.193,2.757,6.517,5.225,3.978,2.727,5.588,4.515,98.0,569.0
2015-02-10,Chengdu,China,104.0647,30.6586,[103.5647 30.1586 104.5647 31.1586],4.193,2.757,6.517,5.225,3.976,2.786,5.501,4.554,98.0,579.0
2015-02-11,Chengdu,China,104.0647,30.6586,[103.5647 30.1586 104.5647 31.1586],4.193,2.757,6.517,5.225,3.998,2.791,5.512,4.553,98.0,533.0
2015-02-12,Chengdu,China,104.0647,30.6586,[103.5647 30.1586 104.5647 31.1586],4.057,2.667,6.517,5.127,4.344,3.012,6.08,4.956,94.0,536.0
2015-02-13,Chengdu,China,104.0647,30.6586,[103.5647 30.1586 104.5647 31.1586],4.006,2.667,6.517,5.112,4.334,3.019,6.104,4.99,95.0,531.0
2015-02-14,Chengdu,China,104.0647,30.6586,[103.5647 30.1586 104.5647 31.1586],4.006,2.667,6.517,5.112,4.469,3.116,6.371,5.234,95.0,535.0
2015-02-15,Chengdu,China,104.0647,30.6586,[103.5647 30.1586 104.5647 31.1586],3.821,2.667,6.259,4.745,4.614,3.384,6.777,5.513,80.0,538.0
2015-02-16,Chengdu,China,104.0647,30.6586,[103.5647 30.1586 104.5647 31.1586],3.678,2.579,6.259,4.564,4.569,3.374,6.792,5.466,88.0,546.0
2015-02-17,Chengdu,China,104.0647,30.6586,[103.5647 30.1586 104.5647 31.1586],3.678,2.579,6.259,4.564,4.483,3.298,6.901,5.424,88.0,544.0
2015-02-18,Chengdu,China,104.0647,30.6586,[103.5647 30.1586 104.5647 31.1586],3.659,2.579,5.185,4.485,4.3,2.855,6.26,5.215,95.0,534.0
2015-02-19,Chengdu,China,104.0647,30.6586,[103.5647 30.1586 104.5647 31.1586],3.428,2.043,4.808,4.656,4.553,3.085,6.804,5.747,67.0,540.0
2015-02-20,Chengdu,China,104.0647,30.6586,[103.5647 30.1586 104.5647 31.1586],3.428,2.043,4.808,4.656,4.595,3.204,7.052,5.904,67.0,528.0
2015-02-21,Chengdu,China,104.0647,30.6586,[103.5647 30.1586 104.5647 31.1586],3.659,2.313,6.411,5.177,5.121,3.683,7.907,6.464,57.0,533.0
2015-02-22,Chengdu,China,104.0647,30.6586,[103.5647 30.1586 104.5647 31.1586],3.613,2.339,4.927,4.039,5.066,3.623,7.521,6.218,58.0,533.0
2015-02-23,Chengdu,China,104.0647,30.6586,[103.5647 30.1586 104.5647 31.1586],3.613,2.387,4.927,4.083,5.248,3.729,7.49,6.231,55.0,550.0
2015-02-24,Chengdu,China,104.0647,30.6586,[103.5647 30.1586 104.5647 31.1586],2.971,1.896,4.808,3.275,5.295,3.773,7.9,6.408,28.0,544.0
2015-02-25,Chengdu,China,104.0647,30.6586,[103.5647 30.1586 104.5647 31.1586],2.971,1.896,4.808,3.275,5.447,3.971,8.02,6.557,28.0,541.0
2015-02-26,Chengdu,China,104.0647,30.6586,[103.5647 30.1586 104.5647 31.1586],2.971,1.896,4.808,3.275,5.626,4.12,8.383,6.837,28.0,575.0
2015-02-27,Chengdu,China,104.0647,30.6586,[103.5647 30.1586 104.5647 31.1586],2.971,1.896,4.808,3.275,5.56,3.976,8.364,6.578,28.0,557.0
2015-02-28,Chengdu,China,104.0647,30.6586,[103.5647 30.1586 104.5647 31.1586],2.971,1.896,4.808,3.292,5.844,4.11,8.87,6.82,27.0,561.0
2015-03-01,Chengdu,China,104.0647,30.6586,[103.5647 30.1586 104.5647 31.1586],3.024,2.488,5.302,3.933,5.512,3.967,8.486,6.531,55.0,558.0
2015-03-02,Chengdu,China,104.0647,30.6586,[103.5647 30.1586 104.5647 31.1586],3.024,2.488,5.302,3.933,5.304,3.861,8.205,6.431,55.0,564.0
2015-03-03,Chengdu,China,104.0647,30.6586,[103.5647 30.1586 104.5647 31.1586],3.043,2.52,5.302,4.127,5.339,3.882,8.238,6.502,47.0,568.0
2015-03-04,Chengdu,China,104.0647,30.6586,[103.5647 30.1586 104.5647 31.1586],3.043,2.538,5.302,4.134,5.339,3.969,8.252,6.526,53.0,576.0
2015-03-05,Chengdu,China,104.0647,30.6586,[103.5647 30.1586 104.5647 31.1586],3.167,2.538,5.403,4.221,5.446,4.0,8.482,6.624,46.0,575.0
2015-03-06,Chengdu,China,104.0647,30.6586,[103.5647 30.1586 104.5647 31.1586],3.207,2.637,6.338,4.538,5.232,3.914,8.462,6.47,63.0,565.0
2015-03-07,Chengdu,China,104.0647,30.6586,[103.5647 30.1586 104.5647 31.1586],3.207,2.637,6.338,4.538,5.233,3.915,8.463,6.468,63.0,569.0
2015-03-08,Chengdu,China,104.0647,30.6586,[103.5647 30.1586 104.5647 31.1586],3.207,2.637,6.338,4.538,5.131,3.733,7.802,6.18,63.0,556.0
2015-03-09,Chengdu,China,104.0647,30.6586,[103.5647 30.1586 104.5647 31.1586],3.757,2.52,6.946,4.76,5.351,3.781,8.026,6.321,52.0,562.0
2015-03-10,Chengdu,China,104.0647,30.6586,[103.5647 30.1586 104.5647 31.1586],3.665,2.488,5.403,4.311,5.123,3.499,7.88,6.087,73.0,563.0
2015-03-11,Chengdu,China,104.0647,30.6586,[103.5647 30.1586 104.5647 31.1586],3.665,2.488,5.465,4.34,5.142,3.509,7.944,6.1,76.0,580.0
2015-03-12,Chengdu,China,104.0647,30.6586,[103.5647 30.1586 104.5647 31.1586],3.665,2.488,5.465,4.34,4.792,3.366,7.823,5.884,76.0,572.0
2015-03-13,Chengdu,China,104.0647,30.6586,[103.5647 30.1586 104.5647 31.1586],3.79,2.52,5.465,4.341,4.727,3.298,7.025,5.531,81.0,567.0
2015-03-14,Chengdu,China,104.0647,30.6586,[103.5647 30.1586 104.5647 31.1586],3.79,2.52,5.465,4.341,4.761,3.324,7.114,5.63,81.0,572.0
2015-03-15,Chengdu,China,104.0647,30.6586,[103.5647 30.1586 104.5647 31.1586],3.79,2.52,5.465,4.341,4.296,2.902,6.563,5.068,81.0,526.0
2015-03-16,Chengdu,China,104.0647,30.6586,[103.5647 30.1586 104.5647 31.1586],4.147,2.684,5.465,4.304,4.553,3.058,6.839,5.237,53.0,530.0
2015-03-17,Chengdu,China,104.0647,30.6586,[103.5647 30.1586 104.5647 31.1586],4.147,2.684,5.465,4.289,4.575,3.053,6.369,4.997,54.0,525.0
2015-03-18,Chengdu,China,104.0647,30.6586,[103.5647 30.1586 104.5647 31.1586],4.147,2.684,5.465,4.289,4.506,2.83,6.324,4.887,54.0,530.0
2015-03-19,Chengdu,China,104.0647,30.6586,[103.5647 30.1586 104.5647 31.1586],4.251,2.684,6.002,4.504,4.68,3.048,7.108,5.272,52.0,536.0
2015-03-20,Chengdu,China,104.0647,30.6586,[103.5647 30.1586 104.5647 31.1586],4.251,2.684,6.002,4.504,4.669,2.857,7.261,5.261,52.0,545.0
2015-03-21,Chengdu,China,104.0647,30.6586,[103.5647 30.1586 104.5647 31.1586],4.147,2.684,5.553,4.051,5.408,3.925,7.925,5.998,35.0,548.0
2015-03-22,Chengdu,China,104.0647,30.6586,[103.5647 30.1586 104.5647 31.1586],4.251,2.684,5.841,4.216,5.476,3.934,7.951,6.028,44.0,540.0
2015-03-23,Chengdu,China,104.0647,30.6586,[103.5647 30.1586 104.5647 31.1586],4.251,2.684,5.841,4.216,5.476,3.934,7.951,6.028,44.0,546.0
2015-03-24,Chengdu,China,104.0647,30.6586,[103.5647 30.1586 104.5647 31.1586],4.251,2.684,5.841,4.216,5.232,3.803,7.562,5.805,44.0,532.0
2015-03-25,Chengdu,China,104.0647,30.6586,[103.5647 30.1586 104.5647 31.1586],5.841,4.798,7.158,5.461,4.849,3.555,6.561,5.417,23.0,537.0
2015-03-26,Chengdu,China,104.0647,30.6586,[103.5647 30.1586 104.5647 31.1586],3.438,2.572,6.431,4.092,4.524,3.289,6.501,5.177,41.0,539.0
2015-03-27,Chengdu,China,104.0647,30.6586,[103.5647 30.1586 104.5647 31.1586],3.438,2.183,6.54,4.348,4.626,3.335,6.753,5.33,68.0,556.0
2015-03-28,Chengdu,China,104.0647,30.6586,[103.5647 30.1586 104.5647 31.1586],3.438,2.113,6.54,4.346,4.662,3.304,6.595,5.416,63.0,550.0
2015-03-29,Chengdu,China,104.0647,30.6586,[103.5647 30.1586 104.5647 31.1586],3.438,2.113,6.54,4.346,4.64,3.334,6.622,5.344,63.0,548.0
2015-03-30,Chengdu,China,104.0647,30.6586,[103.5647 30.1586 104.5647 31.1586],3.438,2.113,6.54,4.346,4.551,3.239,6.626,5.317,63.0,582.0
2015-03-31,Chengdu,China,104.0647,30.6586,[103.5647 30.1586 104.5647 31.1586],3.438,2.113,6.54,4.346,4.614,3.262,6.662,5.384,63.0,559.0
2015-04-01,Chengdu,China,104.0647,30.6586,[103.5647 30.1586 104.5647 31.1586],3.438,2.113,6.54,4.361,4.658,3.283,6.702,5.482,62.0,564.0
2015-04-02,Chengdu,China,104.0647,30.6586,[103.5647 30.1586 104.5647 31.1586],3.438,2.113,6.54,4.361,4.689,3.243,6.74,5.494,62.0,555.0
2015-04-03,Chengdu,China,104.0647,30.6586,[103.5647 30.1586 104.5647 31.1586],3.296,1.864,5.551,4.137,4.632,3.245,6.452,5.388,58.0,559.0
2015-04-04,Chengdu,China,104.0647,30.6586,[103.5647 30.1586 104.5647 31.1586],3.296,1.864,5.551,4.137,4.675,3.246,6.53,5.416,58.0,561.0
2015-04-05,Chengdu,China,104.0647,30.6586,[103.5647 30.1586 104.5647 31.1586],3.638,2.499,7.158,4.985,4.373,3.104,6.635,5.351,86.0,566.0
2015-04-06,Chengdu,China,104.0647,30.6586,[103.5647 30.1586 104.5647 31.1586],3.736,2.561,6.714,4.896,4.366,3.101,6.516,5.282,87.0,565.0
2015-04-07,Chengdu,China,104.0647,30.6586,[103.5647 30.1586 104.5647 31.1586],3.837,2.582,6.714,4.888,4.62,3.222,6.38,5.335,93.0,553.0
2015-04-08,Chengdu,China,104.0647,30.6586,[103.5647 30.1586 104.5647 31.1586],3.837,2.582,6.714,4.888,4.583,3.214,6.514,5.357,93.0,560.0
2015-04-09,Chengdu,China,104.0647,30.6586,[103.5647 30.1586 104.5647 31.1586],3.97,2.776,6.714,5.282,4.846,3.476,6.794,5.735,114.0,547.0
2015-04-10,Chengdu,China,104.0647,30.6586,[103.5647 30.1586 104.5647 31.1586],4.452,3.412,8.188,6.11,5.094,3.758,7.237,6.006,92.0,550.0
2015-04-11,Chengdu,China,104.0647,30.6586,[103.5647 30.1586 104.5647 31.1586],4.846,3.736,8.16,6.27,5.158,3.795,7.395,6.154,65.0,551.0
2015-04-12,Chengdu,China,104.0647,30.6586,[103.5647 30.1586 104.5647 31.1586],4.846,3.736,8.16,6.27,5.306,3.831,7.322,6.137,65.0,572.0
2015-04-13,Chengdu,China,104.0647,30.6586,[103.5647 30.1586 104.5647 31.1586],4.846,3.736,8.16,6.27,5.285,3.84,7.307,6.122,65.0,567.0
2015-04-14,Chengdu,China,104.0647,30.6586,[103.5647 30.1586 104.5647 31.1586],4.846,3.736,8.16,6.27,5.296,3.843,7.527,6.139,65.0,564.0
2015-04-15,Chengdu,China,104.0647,30.6586,[103.5647 30.1586 104.5647 31.1586],4.846,3.736,8.16,6.27,5.309,3.871,7.314,6.04,65.0,576.0
2015-04-16,Chengdu,China,104.0647,30.6586,[103.5647 30.1586 104.5647 31.1586],4.846,3.736,8.16,6.27,5.21,3.758,7.291,5.926,65.0,529.0
2015-04-17,Chengdu,China,104.0647,30.6586,[103.5647 30.1586 104.5647 31.1586],4.846,3.736,8.16,6.27,5.225,3.786,7.318,5.937,65.0,536.0
2015-04-18,Chengdu,China,104.0647,30.6586,[103.5647 30.1586 104.5647 31.1586],4.846,3.736,8.16,6.27,5.264,3.795,7.427,5.98,65.0,534.0
2015-04-19,Chengdu,China,104.0647,30.6586,[103.5647 30.1586 104.5647 31.1586],4.846,3.521,8.16,6.248,5.248,3.708,7.453,5.94,66.0,539.0
2015-04-20,Chengdu,China,104.0647,30.6586,[103.5647 30.1586 104.5647 31.1586],4.522,3.776,5.588,5.267,5.147,3.76,6.804,5.793,69.0,542.0
2015-04-21,Chengdu,China,104.0647,30.6586,[103.5647 30.1586 104.5647 31.1586],4.63,3.957,5.922,5.686,5.193,3.799,6.861,5.875,86.0,549.0
2015-04-22,Chengdu,China,104.0647,30.6586,[103.5647 30.1586 104.5647 31.1586],4.846,3.877,5.922,5.655,5.106,3.738,7.246,5.853,103.0,549.0
2015-04-23,Chengdu,China,104.0647,30.6586,[103.5647 30.1586 104.5647 31.1586],4.846,3.957,5.922,5.65,5.172,3.795,7.071,5.867,108.0,536.0
2015-04-24,Chengdu,China,104.0647,30.6586,[103.5647 30.1586 104.5647 31.1586],5.011,4.095,5.897,5.433,5.235,3.801,7.044,5.847,87.0,541.0
2015-04-25,Chengdu,China,104.0647,30.6586,[103.5647 30.1586 104.5647 31.1586],5.04,4.112,6.096,5.592,5.171,3.742,6.947,5.783,101.0,529.0
2015-04-26,Chengdu,China,104.0647,30.6586,[103.5647 30.1586 104.5647 31.1586],5.04,4.112,6.096,5.592,5.006,3.666,6.791,5.554,101.0,534.0
2015-04-27,Chengdu,China,104.0647,30.6586,[103.5647 30.1586 104.5647 31.1586],4.567,3.957,5.922,5.347,4.928,3.579,6.603,5.393,108.0,534.0
2015-04-28,Chengdu,China,104.0647,30.6586,[103.5647 30.1586 104.5647 31.1586],4.567,3.957,5.922,5.324,4.979,3.584,6.594,5.393,110.0,551.0
2015-04-29,Chengdu,China,104.0647,30.6586,[103.5647 30.1586 104.5647 31.1586],4.564,3.876,5.922,5.294,4.865,3.542,6.586,5.314,111.0,550.0
2015-04-30,Chengdu,China,104.0647,30.6586,[103.5647 30.1586 104.5647 31.1586],4.546,3.796,5.921,5.213,4.843,3.471,6.57,5.269,121.0,547.0
2015-05-01,Chengdu,China,104.0647,30.6586,[103.5647 30.1586 104.5647 31.1586],4.522,3.731,5.921,5.13,4.883,3.428,6.607,5.274,141.0,583.0
2015-05-02,Chengdu,China,104.0647,30.6586,[103.5647 30.1586 104.5647 31.1586],4.788,3.876,6.645,5.675,4.825,3.487,6.601,5.329,162.0,568.0
2015-05-03,Chengdu,China,104.0647,30.6586,[103.5647 30.1586 104.5647 31.1586],4.788,3.876,6.645,5.675,4.681,3.359,6.509,5.196,162.0,571.0
2015-05-04,Chengdu,China,104.0647,30.6586,[103.5647 30.1586 104.5647 31.1586],4.679,3.796,6.687,5.701,4.572,3.333,6.392,5.141,181.0,569.0
2015-05-05,Chengdu,China,104.0647,30.6586,[103.5647 30.1586 104.5647 31.1586],4.807,3.737,7.449,6.078,4.607,3.341,6.544,5.238,160.0,576.0
2015-05-06,Chengdu,China,104.0647,30.6586,[103.5647 30.1586 104.5647 31.1586],4.882,3.795,7.016,5.899,4.54,3.307,6.285,5.108,159.0,576.0
2015-05-07,Chengdu,China,104.0647,30.6586,[103.5647 30.1586 104.5647 31.1586],5.254,3.85,7.317,6.131,4.566,3.351,6.329,5.196,162.0,584.0
2015-05-08,Chengdu,China,104.0647,30.6586,[103.5647 30.1586 104.5647 31.1586],5.352,3.85,7.064,6.112,4.737,3.391,6.403,5.333,170.0,584.0
2015-05-09,Chengdu,China,104.0647,30.6586,[103.5647 30.1586 104.5647 31.1586],5.352,3.85,7.064,6.112,4.785,3.441,6.324,5.299,170.0,571.0
2015-05-10,Chengdu,China,104.0647,30.6586,[103.5647 30.1586 104.5647 31.1586],5.259,3.812,7.0,6.105,4.733,3.407,6.258,5.263,156.0,576.0
2015-05-11,Chengdu,China,104.0647,30.6586,[103.5647 30.1586 104.5647 31.1586],5.259,3.87,7.196,6.147,4.81,3.487,6.421,5.364,173.0,563.0
2015-05-12,Chengdu,China,104.0647,30.6586,[103.5647 30.1586 104.5647 31.1586],5.54,4.051,7.62,6.358,4.887,3.536,6.525,5.422,166.0,567.0
2015-05-13,Chengdu,China,104.0647,30.6586,[103.5647 30.1586 104.5647 31.1586],5.54,4.005,7.62,6.352,4.83,3.505,6.492,5.409,165.0,566.0
2015-05-14,Chengdu,China,104.0647,30.6586,[103.5647 30.1586 104.5647 31.1586],5.54,4.028,7.62,6.379,4.913,3.612,6.539,5.483,164.0,580.0
2015-05-15,Chengdu,China,104.0647,30.6586,[103.5647 30.1586 104.5647 31.1586],5.69,4.051,7.823,6.44,4.915,3.597,6.568,5.473,158.0,577.0
2015-05-16,Chengdu,China,104.0647,30.6586,[103.5647 30.1586 104.5647 31.1586],5.629,4.051,7.823,6.465,4.899,3.585,6.578,5.529,161.0,574.0
2015-05-17,Chengdu,China,104.0647,30.6586,[103.5647 30.1586 104.5647 31.1586],5.259,3.919,7.196,6.079,4.999,3.516,6.514,5.458,140.0,578.0
2015-05-18,Chengdu,China,104.0647,30.6586,[103.5647 30.1586 104.5647 31.1586],5.259,3.919,7.196,6.079,4.825,3.369,6.388,5.384,140.0,531.0
2015-05-19,Chengdu,China,104.0647,30.6586,[103.5647 30.1586 104.5647 31.1586],5.43,4.227,7.196,6.141,4.921,3.532,6.419,5.413,120.0,534.0
2015-05-20,Chengdu,China,104.0647,30.6586,[103.5647 30.1586 104.5647 31.1586],5.352,4.227,7.127,6.032,4.756,3.478,6.25,5.243,110.0,530.0
2015-05-21,Chengdu,China,104.0647,30.6586,[103.5647 30.1586 104.5647 31.1586],5.352,4.224,7.196,6.11,4.883,3.526,6.307,5.318,84.0,539.0
2015-05-22,Chengdu,China,104.0647,30.6586,[103.5647 30.1586 104.5647 31.1586],4.421,3.513,5.956,4.895,4.672,3.316,5.999,5.004,84.0,542.0
2015-05-23,Chengdu,China,104.0647,30.6586,[103.5647 30.1586 104.5647 31.1586],4.421,3.406,5.608,5.01,4.498,3.205,5.775,4.825,98.0,550.0
2015-05-24,Chengdu,China,104.0647,30.6586,[103.5647 30.1586 104.5647 31.1586],4.421,3.364,5.839,5.009,4.274,3.211,5.545,4.7,100.0,552.0
2015-05-25,Chengdu,China,104.0647,30.6586,[103.5647 30.1586 104.5647 31.1586],4.463,3.517,5.724,4.996,4.317,3.253,5.523,4.708,115.0,540.0
2015-05-26,Chengdu,China,104.0647,30.6586,[103.5647 30.1586 104.5647 31.1586],4.421,3.158,5.372,4.592,4.227,3.044,5.333,4.472,98.0,545.0
2015-05-27,Chengdu,China,104.0647,30.6586,[103.5647 30.1586 104.5647 31.1586],4.421,3.158,5.372,4.599,4.264,3.062,5.433,4.533,99.0,532.0
2015-05-28,Chengdu,China,104.0647,30.6586,[103.5647 30.1586 104.5647 31.1586],4.478,3.117,5.372,4.613,4.039,2.92,5.185,4.342,98.0,538.0
2015-05-29,Chengdu,China,104.0647,30.6586,[103.5647 30.1586 104.5647 31.1586],3.938,2.644,4.971,4.149,3.954,2.85,5.133,4.257,132.0,538.0
2015-05-30,Chengdu,China,104.0647,30.6586,[103.5647 30.1586 104.5647 31.1586],4.0,2.644,4.971,4.178,4.139,2.957,5.309,4.349,128.0,551.0
2015-05-31,Chengdu,China,104.0647,30.6586,[103.5647 30.1586 104.5647 31.1586],3.884,2.644,4.889,4.008,3.972,2.859,5.182,4.17,105.0,548.0
2015-06-01,Chengdu,China,104.0647,30.6586,[103.5647 30.1586 104.5647 31.1586],3.884,2.644,4.889,4.008,3.89,2.821,5.187,4.144,105.0,548.0
2015-06-02,Chengdu,China,104.0647,30.6586,[103.5647 30.1586 104.5647 31.1586],3.938,2.644,4.971,4.081,4.027,2.845,5.28,4.219,124.0,581.0
2015-06-03,Chengdu,China,104.0647,30.6586,[103.5647 30.1586 104.5647 31.1586],4.0,2.887,4.994,4.212,4.015,2.878,5.27,4.2,131.0,563.0
2015-06-04,Chengdu,China,104.0647,30.6586,[103.5647 30.1586 104.5647 31.1586],4.0,2.887,4.994,4.212,3.988,2.861,5.271,4.186,131.0,564.0
2015-06-05,Chengdu,China,104.0647,30.6586,[103.5647 30.1586 104.5647 31.1586],4.0,2.887,4.994,4.212,3.879,2.855,5.186,4.174,131.0,562.0
2015-06-06,Chengdu,China,104.0647,30.6586,[103.5647 30.1586 104.5647 31.1586],4.0,2.895,5.12,4.352,3.818,2.835,5.249,4.148,117.0,568.0
2015-06-07,Chengdu,China,104.0647,30.6586,[103.5647 30.1586 104.5647 31.1586],3.766,2.644,4.971,4.054,3.79,2.816,5.255,4.106,92.0,573.0
2015-06-08,Chengdu,China,104.0647,30.6586,[103.5647 30.1586 104.5647 31.1586],3.766,2.644,4.971,4.048,3.778,2.78,5.176,4.089,90.0,581.0
2015-06-09,Chengdu,China,104.0647,30.6586,[103.5647 30.1586 104.5647 31.1586],3.491,2.631,4.722,3.909,3.641,2.646,5.098,3.99,75.0,582.0
2015-06-10,Chengdu,China,104.0647,30.6586,[103.5647 30.1586 104.5647 31.1586],3.938,2.644,5.002,4.22,3.917,2.724,5.225,4.215,96.0,572.0
2015-06-11,Chengdu,China,104.0647,30.6586,[103.5647 30.1586 104.5647 31.1586],3.938,2.644,5.002,4.212,3.882,2.677,5.22,4.193,95.0,578.0
2015-06-12,Chengdu,China,104.0647,30.6586,[103.5647 30.1586 104.5647 31.1586],3.938,2.644,5.002,4.212,4.177,2.918,5.406,4.332,95.0,565.0
2015-06-13,Chengdu,China,104.0647,30.6586,[103.5647 30.1586 104.5647 31.1586],4.38,3.433,6.714,5.152,4.274,3.078,5.676,4.476,61.0,568.0
2015-06-14,Chengdu,China,104.0647,30.6586,[103.5647 30.1586 104.5647 31.1586],4.121,3.1,6.251,4.784,3.929,2.761,5.425,4.336,73.0,569.0
2015-06-15,Chengdu,China,104.0647,30.6586,[103.5647 30.1586 104.5647 31.1586],4.121,3.1,6.251,4.784,4.098,2.908,5.522,4.465,73.0,584.0
2015-06-16,Chengdu,China,104.0647,30.6586,[103.5647 30.1586 104.5647 31.1586],4.121,3.1,6.251,4.784,4.269,3.02,5.61,4.565,73.0,578.0
2015-06-17,Chengdu,China,104.0647,30.6586,[103.5647 30.1586 104.5647 31.1586],4.18,3.1,6.057,4.761,4.05,2.979,5.612,4.529,54.0,578.0
2015-06-18,Chengdu,China,104.0647,30.6586,[103.5647 30.1586 104.5647 31.1586],4.067,2.877,6.057,4.701,4.025,2.932,5.602,4.518,53.0,587.0
2015-06-19,Chengdu,China,104.0647,30.6586,[103.5647 30.1586 104.5647 31.1586],4.067,2.877,6.057,4.701,4.031,2.977,5.592,4.517,53.0,542.0
2015-06-20,Chengdu,China,104.0647,30.6586,[103.5647 30.1586 104.5647 31.1586],4.067,2.877,6.057,4.701,3.95,2.843,5.48,4.446,53.0,544.0
2015-06-21,Chengdu,China,104.0647,30.6586,[103.5647 30.1586 104.5647 31.1586],4.657,3.1,6.263,4.947,4.224,3.026,5.552,4.661,41.0,541.0